DL9GJ-6 Weather Reports


Display with metric or nautical units.
time (UTC)temp
F
wind
direction
speed
MPH
gust
MPH
rain 1hr
in
rain 24hr
in
rain mn
in
humidity
%
barometer
mb
20260506073207 56 296 0.0 2.0 0.00 0.02 0.00 84 1005.8
20260506072620 56 221 0.0 1.0 0.00 0.02 0.00 85 1005.9
20260506072020 55 221 1.0 4.0 0.00 0.02 0.00 85 1006.0
20260506071419 55 202 1.0 2.0 0.00 0.02 0.00 87 1006.1
20260506070811 55 107 0.0 0.0 0.00 0.02 0.00 88 1006.0
20260506070220 55 100 0.0 4.0 0.00 0.02 0.00 89 1006.0
20260506062021 53 78 0.0 3.0 0.00 0.02 0.00 92 1005.8
20260506062006 53 78 0.0 3.0 0.00 0.02 0.00 92 1005.8
20260506061420 52 130 1.0 4.0 0.00 0.02 0.00 92 1006.0
20260506060821 52 133 2.0 4.0 0.00 0.02 0.00 93 1006.0
20260506060220 51 113 0.0 2.0 0.00 0.02 0.00 93 1006.0
20260506050821 46 140 0.0 0.0 0.00 0.02 0.00 93 1006.1
20260506050220 46 140 0.0 0.0 0.00 0.02 0.00 93 1006.2
20260506045020 45 135 0.0 0.0 0.00 0.02 0.00 93 1006.3
20260506044421 45 135 0.0 0.0 0.00 0.02 0.00 93 1006.3
20260506043821 45 135 0.0 2.0 0.00 0.02 0.00 93 1006.3
20260506043220 45 135 0.0 0.0 0.00 0.02 0.00 93 1006.3
20260506042620 45 135 0.0 1.0 0.00 0.02 0.00 92 1006.3
20260506042020 45 139 0.0 0.0 0.00 0.02 0.00 92 1006.4
20260506041421 45 126 0.0 0.0 0.00 0.02 0.00 92 1006.5
20260506040822 45 126 0.0 0.0 0.00 0.02 0.00 93 1006.6
20260506040208 45 126 0.0 0.0 0.00 0.02 0.00 93 1006.5
20260506035620 45 126 0.0 2.0 0.00 0.02 0.00 93 1006.6
20260506035020 45 126 1.0 4.0 0.00 0.02 0.00 92 1006.7
20260506034421 46 121 1.0 4.0 0.00 0.02 0.00 92 1006.8
20260506033807 46 133 0.0 0.0 0.00 0.02 0.00 92 1006.9
20260506033220 46 133 0.0 0.0 0.00 0.02 0.00 92 1006.9
20260506032621 46 133 0.0 0.0 0.00 0.02 0.00 92 1006.9
20260506032021 46 133 0.0 0.0 0.00 0.02 0.00 92 1007.0
20260506031420 46 133 0.0 0.0 0.00 0.02 0.00 92 1006.9
20260506030808 46 126 0.0 2.0 0.00 0.02 0.00 92 1006.9
20260506030221 46 140 0.0 3.0 0.00 0.02 0.00 92 1007.0
20260506025621 46 134 0.0 2.0 0.00 0.02 0.00 92 1007.0
20260506025021 46 121 0.0 2.0 0.00 0.02 0.00 92 1007.1
20260506024420 46 128 1.0 2.0 0.00 0.02 0.00 92 1007.1
20260506023821 46 132 0.0 2.0 0.00 0.02 0.00 92 1007.2
20260506023208 47 124 2.0 4.0 0.00 0.02 0.00 92 1007.1
20260506022622 47 123 1.0 4.0 0.00 0.02 0.00 92 1007.1
20260506022022 47 123 0.0 0.0 0.00 0.02 0.00 92 1007.2
20260506021422 47 157 0.0 0.0 0.00 0.02 0.00 92 1007.3
20260506020811 47 157 0.0 0.0 0.00 0.02 0.00 92 1007.3
20260506020209 47 157 0.0 0.0 0.00 0.02 0.00 92 1007.2
20260506015607 48 157 0.0 0.0 0.00 0.02 0.00 91 1007.3
20260506015020 48 157 0.0 0.0 0.00 0.02 0.00 92 1007.2
20260506014421 48 195 0.0 0.0 0.00 0.02 0.00 92 1007.3
20260506013806 49 221 0.0 0.0 0.00 0.02 0.00 92 1007.3
20260506013207 49 221 0.0 0.0 0.00 0.02 0.00 92 1007.4
20260506012620 49 221 0.0 0.0 0.00 0.02 0.00 92 1007.4
20260506012021 49 221 0.0 1.0 0.00 0.02 0.00 92 1007.5
20260506011414 49 201 1.0 2.0 0.00 0.02 0.00 92 1007.8
20260506010821 49 208 1.0 1.0 0.00 0.02 0.00 92 1007.8
20260506010221 49 207 1.0 2.0 0.00 0.02 0.00 92 1007.7
20260506005622 49 213 2.0 6.0 0.00 0.02 0.00 92 1007.6
20260506005022 49 191 1.0 4.0 0.00 0.02 0.00 92 1007.6
20260506004413 49 194 1.0 4.0 0.00 0.02 0.00 92 1007.5
20260506003810 49 192 1.0 2.0 0.00 0.02 0.00 92 1007.6
20260506003209 48 209 0.0 2.0 0.00 0.02 0.00 92 1007.6
20260506002606 48 192 0.0 1.0 0.00 0.02 0.00 91 1007.6
20260506002020 48 225 0.0 0.0 0.00 0.02 0.00 91 1007.7
20260506001420 48 225 0.0 0.0 0.00 0.02 0.00 91 1007.7
20260506000820 49 225 0.0 0.0 0.00 0.02 0.00 91 1007.8
20260506000220 49 225 0.0 0.0 0.00 0.02 0.00 91 1007.8
20260505235620 49 225 0.0 2.0 0.00 0.02 0.00 91 1007.7
20260505235020 49 225 2.0 5.0 0.00 0.02 0.00 91 1007.8
20260505234420 49 235 0.0 6.0 0.00 0.02 0.00 91 1007.9
20260505233809 48 213 0.0 5.0 0.00 0.02 0.00 91 1007.9
20260505233208 48 215 1.0 3.0 0.00 0.02 0.00 91 1008.0
20260505232607 49 209 0.0 1.0 0.00 0.02 0.00 90 1008.1
20260505232022 49 219 0.0 0.0 0.00 0.02 0.00 90 1008.1
20260505231422 49 219 0.0 0.0 0.00 0.02 0.00 90 1008.1
20260505230807 49 219 0.0 0.0 0.00 0.02 0.00 89 1008.2
20260505230209 50 219 0.0 0.0 0.00 0.02 0.00 90 1008.2
20260505225622 50 201 0.0 0.0 0.00 0.02 0.00 89 1008.2
20260505225021 50 201 0.0 0.0 0.00 0.02 0.00 89 1008.1
20260505224422 51 206 1.0 2.0 0.00 0.02 0.00 89 1008.1
20260505223808 51 227 0.0 0.0 0.00 0.02 0.00 89 1008.1
20260505223206 51 230 0.0 4.0 0.00 0.02 0.00 89 1008.1
20260505222620 51 178 0.0 4.0 0.00 0.02 0.00 89 1008.2
20260505222021 51 163 2.0 5.0 0.00 0.02 0.00 88 1008.1
20260505221412 51 220 1.0 4.0 0.00 0.02 0.00 88 1008.0
20260505220821 52 223 3.0 5.0 0.00 0.02 0.00 88 1008.0
20260505220223 52 238 2.0 6.0 0.00 0.02 0.00 88 1008.0
20260505215621 52 219 2.0 4.0 0.00 0.02 0.02 88 1008.1
20260505215020 52 226 0.0 2.0 0.00 0.02 0.02 88 1008.0
20260505214421 53 285 0.0 4.0 0.00 0.02 0.02 88 1008.1
20260505213813 53 239 3.0 7.0 0.00 0.02 0.02 88 1008.0
20260505213221 53 258 4.0 7.0 0.00 0.02 0.02 87 1008.0
20260505212621 53 237 4.0 7.0 0.00 0.02 0.02 87 1008.1
20260505212021 54 246 2.0 6.0 0.00 0.02 0.02 87 1008.0
20260505211422 54 250 2.0 6.0 0.00 0.02 0.02 86 1008.0
20260505210821 54 272 2.0 5.0 0.00 0.02 0.02 86 1007.9
20260505210222 54 240 4.0 7.0 0.00 0.02 0.02 86 1007.8
20260505205621 54 234 3.0 7.0 0.00 0.02 0.02 86 1007.9
20260505205021 54 229 5.0 7.0 0.00 0.02 0.02 85 1007.8
20260505204421 55 273 3.0 7.0 0.00 0.02 0.02 85 1007.8
20260505203821 55 238 3.0 11.0 0.00 0.02 0.02 85 1008.0
20260505203221 55 236 3.0 7.0 0.00 0.02 0.02 85 1008.0
20260505202621 55 221 4.0 10.0 0.00 0.02 0.02 85 1008.0
20260505202009 55 215 5.0 10.0 0.00 0.02 0.02 85 1008.0
20260505201421 56 206 4.0 8.0 0.00 0.02 0.02 85 1008.0
20260505200812 56 211 4.0 10.0 0.00 0.02 0.02 85 1007.9
20260505200209 56 216 3.0 7.0 0.00 0.02 0.02 84 1008.0
20260505195621 56 213 3.0 6.0 0.00 0.02 0.02 84 1008.0
20260505195021 57 190 2.0 6.0 0.00 0.02 0.02 82 1008.0
20260505194412 58 237 4.0 10.0 0.00 0.02 0.02 79 1008.0
20260505193821 58 232 10.0 14.0 0.00 0.02 0.02 79 1007.9
20260505193221 59 296 5.0 12.0 0.00 0.02 0.02 79 1007.8
20260505192607 59 248 5.0 11.0 0.00 0.02 0.02 78 1007.7
20260505192022 59 245 4.0 9.0 0.00 0.02 0.02 77 1007.5
20260505191421 59 229 5.0 7.0 0.00 0.02 0.02 76 1007.2
20260505190807 59 239 4.0 7.0 0.00 0.02 0.02 76 1007.0
20260505190209 59 240 3.0 7.0 0.00 0.02 0.02 75 1006.9
20260505185620 59 270 2.0 6.0 0.00 0.05 0.02 74 1006.8
20260505185020 59 319 3.0 8.0 0.00 0.05 0.02 74 1006.7
20260505184420 60 244 2.0 10.0 0.00 0.05 0.02 73 1006.8
20260505183821 60 228 5.0 7.0 0.00 0.05 0.02 73 1006.6
20260505183208 60 249 2.0 4.0 0.00 0.05 0.02 74 1006.6
20260505182622 60 269 0.0 4.0 0.00 0.05 0.02 74 1006.6
20260505182021 60 254 0.0 5.0 0.00 0.05 0.02 74 1006.6
20260505181409 60 220 0.0 0.0 0.00 0.05 0.02 73 1006.4
20260505180821 60 220 0.0 0.0 0.00 0.05 0.02 73 1006.3
20260505180221 61 220 0.0 1.0 0.00 0.05 0.02 72 1006.2
20260505175621 61 219 0.0 2.0 0.00 0.08 0.02 71 1006.2
20260505175022 61 238 0.0 1.0 0.00 0.08 0.02 71 1006.2
20260505174422 61 264 1.0 3.0 0.00 0.08 0.02 70 1006.2
20260505173808 61 313 1.0 4.0 0.00 0.08 0.02 69 1006.2
20260505173221 62 269 3.0 7.0 0.00 0.08 0.02 68 1006.1
20260505172621 62 291 3.0 6.0 0.00 0.08 0.02 69 1006.2
20260505172021 62 290 3.0 6.0 0.00 0.08 0.02 69 1006.1
20260505171420 62 271 3.0 6.0 0.00 0.08 0.02 68 1005.9
20260505170809 62 278 3.0 7.0 0.00 0.08 0.02 67 1005.9
20260505170220 63 252 1.0 6.0 0.00 0.08 0.02 67 1005.9
20260505165621 63 280 0.0 6.0 0.00 0.08 0.02 69 1005.8
20260505165022 63 290 0.0 0.0 0.00 0.08 0.02 69 1005.9
20260505164421 63 290 1.0 2.0 0.00 0.08 0.02 65 1005.7
20260505163822 63 290 0.0 2.0 0.00 0.08 0.02 65 1005.8
20260505163209 63 198 0.0 1.0 0.00 0.08 0.02 66 1005.7
20260505162607 63 194 0.0 4.0 0.00 0.08 0.02 65 1005.8
20260505162022 63 169 3.0 6.0 0.01 0.08 0.02 66 1005.9
20260505161422 62 269 1.0 2.0 0.01 0.08 0.02 70 1006.1
20260505160821 62 278 0.0 1.0 0.01 0.08 0.02 70 1006.0
20260505160207 62 278 0.0 2.0 0.01 0.08 0.02 70 1006.0
20260505153221 63 346 1.0 5.0 0.01 0.08 0.02 71 1006.1
20260505152609 62 285 1.0 4.0 0.01 0.08 0.02 73 1006.2
20260505152020 62 355 0.0 6.0 0.00 0.07 0.02 72 1006.1
20260505151413 62 328 4.0 9.0 0.00 0.07 0.02 70 1006.0
20260505150822 62 333 5.0 8.0 0.00 0.07 0.02 71 1006.2
20260505150208 62 296 2.0 5.0 0.00 0.07 0.02 73 1006.2
20260505140208 62 331 1.0 4.0 0.00 0.07 0.02 73 1006.3
20260505130221 62 291 0.0 2.0 0.01 0.07 0.02 73 1006.9
20260505125009 62 233 3.0 4.0 0.01 0.07 0.02 73 1006.9
20260505124422 62 235 2.0 5.0 0.01 0.07 0.02 75 1006.9
20260505123821 62 202 1.0 6.0 0.01 0.07 0.02 77 1006.9
20260505123222 62 199 2.0 6.0 0.01 0.07 0.02 79 1007.0
20260505122621 62 222 1.0 4.0 0.01 0.07 0.02 80 1007.1
20260505122021 62 235 2.0 6.0 0.01 0.07 0.02 78 1007.0
20260505121421 63 247 2.0 9.0 0.00 0.06 0.01 73 1007.1
20260505120821 63 222 4.0 10.0 0.00 0.06 0.01 70 1007.1
20260505120220 64 217 2.0 8.0 0.00 0.06 0.01 68 1007.1
20260505115623 64 234 2.0 6.0 0.00 0.06 0.01 68 1006.9
20260505115022 64 239 2.0 5.0 0.00 0.06 0.01 66 1006.9
20260505114421 65 233 2.0 6.0 0.00 0.06 0.01 69 1006.8
20260505113822 65 284 3.0 7.0 0.00 0.06 0.01 68 1006.8
20260505113221 65 185 4.0 9.0 0.00 0.06 0.01 69 1006.8
20260505112609 64 261 0.0 3.0 0.00 0.06 0.01 70 1006.7
20260505112021 64 270 2.0 4.0 0.00 0.06 0.01 68 1006.6
20260505111411 63 298 0.0 3.0 0.00 0.06 0.01 67 1006.5
20260505110808 63 255 2.0 5.0 0.00 0.06 0.01 67 1006.3
20260505110208 64 274 1.0 5.0 0.00 0.06 0.01 66 1006.4
20260505102010 63 278 0.0 4.0 0.00 0.06 0.01 71 1006.7
20260505101422 64 315 0.0 1.0 0.00 0.06 0.01 73 1006.7
20260505100821 64 310 0.0 2.0 0.00 0.06 0.01 74 1006.8
20260505100208 64 262 1.0 3.0 0.00 0.06 0.01 73 1006.8
20260505095621 64 9 0.0 1.0 0.00 0.06 0.01 74 1006.8
20260505095021 63 300 0.0 4.0 0.00 0.06 0.01 74 1006.8
20260505094422 63 11 1.0 4.0 0.00 0.06 0.01 73 1006.9
20260505093809 63 355 1.0 4.0 0.00 0.06 0.01 73 1006.9
20260505093221 63 323 0.0 3.0 0.00 0.06 0.01 73 1007.0
20260505092607 63 311 2.0 4.0 0.00 0.06 0.01 73 1007.0
20260505092010 63 257 0.0 0.0 0.00 0.06 0.01 75 1007.1
20260505091422 63 257 0.0 1.0 0.00 0.06 0.01 74 1007.1
20260505090821 63 232 1.0 4.0 0.00 0.06 0.01 77 1007.1
20260505090210 62 360 1.0 3.0 0.00 0.06 0.01 76 1007.2
20260505085622 62 261 0.0 4.0 0.00 0.06 0.01 76 1007.2
20260505085023 62 235 0.0 5.0 0.00 0.06 0.01 77 1007.2
20260505085008 62 235 0.0 5.0 0.00 0.06 0.01 77 1007.2
20260505084423 62 202 1.0 2.0 0.00 0.06 0.01 75 1007.2
20260505083811 62 170 1.0 4.0 0.00 0.06 0.01 76 1007.3
20260505083222 62 175 0.0 4.0 0.00 0.06 0.01 77 1007.3
20260505082621 62 115 0.0 0.0 0.00 0.06 0.01 77 1007.3
20260505082021 61 192 0.0 4.0 0.00 0.06 0.01 77 1007.4
20260505081421 62 199 0.0 1.0 0.00 0.06 0.01 77 1007.4
20260505080821 62 67 0.0 0.0 0.00 0.06 0.01 79 1007.5
20260505080222 61 142 0.0 2.0 0.00 0.06 0.01 80 1007.5